This demonstration page uses our WeatherBlox Daily Observations layout. Learn more.

Left ArrowRight Arrow

39.01783, -85.05884

Hourly Observations for August 6, 2022

Temp ( °F °C ) Dew Point ( °F °C ) Humidity (%) Winds ( mph kmh ) Pressure ( in mb ) Visibility ( mi km ) Precip ( " mm )
12:52 am 00:52 Mostly Cloudy 75 23.9 74 23.3 96 96 SSE 6 9 30.11 1020 10 16 0.00 0.00
1:52 am 01:52 Cloudy 74 23.3 74 23.3 100 100 S 6 9 30.10 1019 10 16 0.00 0.00
2:52 am 02:52 Cloudy 74 23.3 74 23.3 100 100 S 7 11 30.08 1019 10 16 0.02 0.51
3:52 am 03:52 Cloudy 74 23.3 74 23.3 100 100 S 7 11 30.09 1019 10 16 0.00 0.00
4:44 am 04:44 Cloudy with Thunderstorms 74 23.3 74 23.3 100 100 S 7 11 30.09 1019 10 16 0.00 0.00
4:52 am 04:52 Cloudy with Thunderstorms 74 23.3 74 23.3 100 100 S 7 11 30.09 1019 10 16 0.00 0.00
5:17 am 05:17 Cloudy with Thunderstorms 74 23.3 74 23.3 100 100 S 8 13 30.10 1019 2 3 0.00 0.00
5:49 am 05:49 Cloudy with Thunderstorms 72 22 72 22 100 100 S 8 13 30.09 1019 5 8 0.18 4.57
5:50 am 05:50 Cloudy with Thunderstorms 72 22.2 72 22.2 100 100 WSW 10 17 30.09 1019 5 8 0.18 4.57
6:27 am 06:27 Cloudy 72 22.2 72 22.2 100 100 WSW 10 17 30.11 1020 10 16 0.10 2.54
6:52 am 06:52 Cloudy with Thunderstorms 73 22.8 73 22.8 100 100 WSW 10 17 30.11 1020 7 11 0.10 2.54
7:01 am 07:01 Cloudy with Thunderstorms 73 22.8 73 22.8 100 100 WSW 10 17 30.13 1020 6 10 0.00 0.00
7:17 am 07:17 Cloudy with Nearby Thunderstorms 72 22.2 72 22.2 100 100 WSW 9 15 30.12 1020 7 11 0.00 0.00
7:27 am 07:27 Cloudy with Nearby Thunderstorms 72 22.2 72 22.2 100 100 WSW 9 15 30.12 1020 8 13 0.00 0.00
7:32 am 07:32 Cloudy 72 22.2 72 22.2 100 100 WSW 9 15 30.12 1020 8 13 0.00 0.00
7:52 am 07:52 Cloudy with Light Rain 72 22.2 72 22.2 100 100 W 10 17 30.12 1020 9 14 0.00 0.00
8:18 am 08:18 Cloudy with Light Rain 72 22.2 72 22.2 100 100 W 7 11 30.13 1020 6 10 0.01 0.25
8:32 am 08:32 Cloudy with Light Rain 73 22.8 73 22.8 100 100 SE 7 11 30.12 1020 3 5 0.02 0.51
8:40 am 08:40 Cloudy with Rain 73 22.8 73 22.8 100 100 SSE 7 11 30.12 1020 2 3 0.23 5.84
8:45 am 08:45 Cloudy with Rain 73 22.8 73 22.8 100 100 E 6 9 30.13 1020 2 2 0.32 8.13
8:49 am 08:49 Cloudy with Thunderstorms 73 23 73 23 100 100 E 9 15 30.14 1021 2 2 0.37 9.40
8:52 am 08:52 Cloudy with Thunderstorms 73 22.8 73 22.8 100 100 ENE 7 11 30.14 1021 2 2 0.44 11.18
8:59 am 08:59 Cloudy with Strong Thunderstorms 73 22.8 73 22.8 100 100 NNE 3 6 30.14 1021 1 2 0.26 6.60
9:18 am 09:18 Cloudy with Thunderstorms 73 22.8 73 22.8 100 100 SSW 6 9 30.15 1021 2 3 1.06 26.92
9:29 am 09:29 Cloudy with Thunderstorms 73 22.8 73 22.8 100 100 WSW 7 11 30.15 1021 1 2 1.11 28.19
9:52 am 09:52 Cloudy with Thunderstorms 72 22.2 72 22.2 100 100 S 5 7 30.15 1021 4 6 1.53 38.86
9:59 am 09:59 Cloudy with Light Rain 72 22.2 72 22.2 100 100 S 6 9 30.14 1021 5 8 0.00 0.00
10:19 am 10:19 Cloudy with Light Rain 72 22.2 72 22.2 100 100 WSW 5 7 30.13 1020 8 13 0.00 0.00
10:41 am 10:41 Cloudy 73 22.8 73 22.8 100 100 SSW 7 11 30.15 1021 10 16 0.00 0.00
10:52 am 10:52 Cloudy with Light Rain 73 22.8 73 22.8 100 100 S 5 7 30.16 1021 10 16 0.00 0.00
11:07 am 11:07 Cloudy 73 22.8 73 22.8 100 100 S 8 13 30.16 1021 10 16 0.00 0.00
11:52 am 11:52 Cloudy with Light Rain 73 22.8 72 22.2 96 96 SSW 7 11 30.18 1022 9 14 0.00 0.00
12:04 pm 12:04 Cloudy with Thunderstorms 72 22.2 72 22.2 100 100 SSW 7 11 30.18 1022 5 8 0.00 0.00
12:09 pm 12:09 Cloudy with Thunderstorms 72 22.2 72 22.2 100 100 SW 9 15 30.18 1022 3 4 0.00 0.00
12:18 pm 12:18 Cloudy with Strong Thunderstorms 72 22.2 72 22.2 100 100 S 12 19 30.18 1022 2 2 0.02 0.51
12:29 pm 12:29 Cloudy with Thunderstorms 72 22.2 72 22.2 100 100 SSW 7 11 30.17 1022 3 4 0.12 3.05
12:35 pm 12:35 Cloudy with Thunderstorms 72 22.2 72 22.2 100 100 S 7 11 30.17 1022 5 8 0.12 3.05
12:43 pm 12:43 Cloudy with Light Rain 72 22.2 72 22.2 100 100 S 7 11 30.17 1022 8 13 0.13 3.30
12:52 pm 12:52 Cloudy with Nearby Thunderstorms 73 22.8 73 22.8 100 100 S 7 11 30.17 1022 8 13 0.13 3.30
1:01 pm 13:01 Cloudy with Light Rain 73 22.8 73 22.8 100 100 SSW 9 15 30.16 1021 7 11 0.00 0.00
1:27 pm 13:27 Mostly Cloudy 78 25.6 78 25.6 100 100 SSW 8 13 30.15 1021 9 14 0.00 0.00
1:29 pm 13:29 Cloudy 78 25.6 77 25 97 97 SSW 9 15 30.15 1021 9 14 0.00 0.00
1:42 pm 13:42 Cloudy 77 25 77 25 100 100 SSW 8 13 30.15 1021 8 13 0.00 0.00
1:52 pm 13:52 Mostly Cloudy 78 25.6 77 25 97 97 S 9 15 30.15 1021 9 14 0.00 0.00
2:52 pm 14:52 Mostly Cloudy 81 27.2 78 25.6 91 91 SW 6 9 30.13 1020 9 14 0.00 0.00
3:32 pm 15:32 Mostly Cloudy 81 27.2 76 24.4 85 85 S 8 13 30.11 1019 9 14 0.00 0.00
3:52 pm 15:52 Mostly Cloudy 80 26.7 76 24.4 87 87 S 9 15 30.12 1020 9 14 0.00 0.00
4:52 pm 16:52 Mostly Cloudy 79 26.1 75 23.9 88 88 SSW 5 7 30.09 1019 10 16 0.00 0.00
5:52 pm 17:52 Partly Cloudy 79 26.1 75 23.9 88 88 S 9 15 30.10 1019 10 16 0.00 0.00
6:52 pm 18:52 Partly Cloudy 78 25.6 75 23.9 90 90 S 9 15 30.12 1020 10 16 0.00 0.00
7:52 pm 19:52 Partly Cloudy 78 25.6 74 23.3 87 87 S 9 15 30.10 1019 10 16 0.00 0.00
8:52 pm 20:52 Partly Cloudy 76 24.4 75 23.9 97 97 S 8 13 30.12 1020 10 16 0.00 0.00
9:52 pm 21:52 Partly Cloudy 75 23.9 75 23.9 100 100 S 7 11 30.14 1021 10 16 0.00 0.00
10:52 pm 22:52 Mostly Clear 74 23.3 74 23.3 100 100 S 7 11 30.15 1021 10 16 0.00 0.00
11:52 pm 23:52 Clear 74 23.3 73 22.8 97 97 SSW 8 13 30.15 1021 10 16 0.00 0.00

Powered by AerisWeather